Wind_Speed
31 30 29 29 30 29 27 26 24 22 21 21 22 23 23 23 22 22 21 21 21 22 24 26 28 26 23 23 25 25 23 23 24 24 24 23 24 24 23 23 23 23 24 22 21 21 22 23 21 20 20 20 19 19 19 18 18 19 20 21 22 23 24
33 32 30 30 30 29 27 26 24 22 21 21 22 23 24 23 23 23 22 22 22 23 24 26 29 30 25 23 24 25 25 25 25 24 24 25 25 25 24 23 23 24 25 23 22 22 22 23 22 20 20 20 19 19 19 19 19 19 19 21 22 23 24
34 34 32 30 30 29 27 26 25 23 21 21 22 23 24 24 24 23 22 23 23 24 24 25 29 32 29 25 23 23 24 25 25 25 25 26 26 26 25 24 23 24 25 23 22 23 23 23 24 22 21 21 19 19 19 20 19 18 19 20 22 23 23
36 36 34 31 30 29 27 27 27 24 21 22 22 23 25 25 24 24 23 24 24 24 24 26 29 32 33 30 26 23 22 24 25 26 25 26 26 26 25 25 24 24 25 23 22 23 24 24 24 22 21 20 19 19 20 20 19 18 18 20 22 22 22
38 38 35 31 31 29 27 27 27 25 23 22 22 23 25 26 25 24 24 25 25 24 25 26 29 32 34 34 31 26 23 23 25 27 26 26 26 26 26 26 26 25 24 24 22 23 25 25 24 21 20 19 18 19 19 20 19 18 18 20 21 21 22
39 38 34 31 31 30 27 27 27 26 25 23 22 24 25 27 26 25 25 26 25 24 25 27 29 31 33 34 33 30 26 25 26 28 27 27 28 28 28 27 27 26 25 25 24 23 24 25 24 21 19 18 18 18 19 20 19 18 19 20 21 21 22
39 37 34 32 32 30 27 27 27 27 26 24 23 24 26 27 27 26 26 26 25 24 25 27 29 31 32 32 32 31 30 29 27 27 27 28 28 28 28 26 26 26 25 24 22 21 25 27 24 20 18 17 17 19 20 20 19 19 19 20 21 22 22
38 37 35 33 33 31 29 27 28 28 28 25 24 25 27 28 28 28 27 25 25 25 26 28 29 29 29 30 30 31 32 31 29 27 27 28 28 28 28 26 26 27 26 24 20 21 27 29 24 20 18 17 17 19 21 20 20 19 19 20 21 22 23
38 37 36 35 34 33 30 28 29 29 29 27 26 26 27 28 29 29 27 25 25 25 26 28 28 27 27 27 28 29 31 32 32 30 28 28 29 29 29 29 30 29 28 27 24 25 29 28 23 21 18 16 18 20 21 21 20 19 19 21 22 23 24
38 38 37 37 36 35 32 30 30 31 30 29 28 27 28 29 30 30 28 26 25 25 26 28 27 25 25 26 27 28 29 30 31 31 30 28 28 29 29 29 30 28 27 28 26 26 30 28 23 19 17 17 18 19 20 20 19 19 19 21 23 24 25
39 39 39 38 38 37 34 32 31 32 31 30 29 28 28 30 31 30 28 27 26 25 26 27 26 25 25 24 25 27 28 29 29 30 29 28 28 28 27 27 28 27 27 29 29 28 29 27 22 18 16 18 18 19 20 20 19 19 20 22 23 24 26
40 40 40 40 40 39 37 35 33 33 33 32 31 29 29 31 31 30 29 27 26 26 26 25 25 25 24 24 25 27 29 29 28 27 27 26 26 27 25 24 25 25 25 29 31 31 26 21 18 16 17 18 18 19 20 19 19 19 21 23 24 25 26
41 41 42 42 42 41 39 37 35 34 34 33 32 30 30 31 32 31 29 27 26 26 25 24 24 23 23 24 25 27 28 27 25 25 25 24 25 25 22 19 20 21 22 25 27 24 18 15 15 16 17 18 19 19 19 19 20 21 22 24 25 26 26
43 42 43 44 44 43 40 38 36 35 34 34 32 31 31 32 32 31 29 28 27 26 24 23 23 22 22 24 25 26 26 25 24 23 23 23 24 23 19 15 15 15 16 18 17 15 14 14 15 16 18 19 19 19 19 20 20 22 23 24 25 26 26
44 43 45 46 45 43 41 39 37 36 35 34 33 31 32 33 31 30 29 28 27 25 23 22 22 22 23 24 25 25 23 23 23 22 22 22 23 22 17 13 11 9 9 10 11 12 13 14 16 18 18 18 18 19 20 20 21 22 24 24 25 25 25
45 45 47 48 46 43 42 40 38 36 35 34 33 32 33 33 31 30 29 28 26 24 22 21 21 21 22 24 24 23 22 22 21 21 22 22 21 20 16 11 8 7 7 8 10 11 13 15 16 17 17 17 18 19 20 21 22 23 24 25 25 25 25
47 47 48 48 46 44 43 41 38 36 35 34 33 32 33 32 30 30 29 27 25 23 22 21 20 20 22 23 23 22 21 21 20 20 19 19 19 18 13 9 7 8 9 10 11 12 13 14 15 15 16 17 18 20 21 22 23 23 24 25 25 25 26
49 49 49 48 45 45 45 41 38 36 35 34 33 33 33 31 30 30 29 27 24 22 21 20 19 20 21 21 21 21 20 19 19 18 16 17 18 14 9 8 9 10 11 12 13 13 12 13 14 15 16 18 19 21 22 23 23 24 25 25 26 26 26
50 49 49 47 45 46 45 40 38 36 35 34 33 33 32 30 29 30 28 26 23 21 20 19 18 19 19 19 19 19 18 17 17 16 15 15 14 8 6 7 9 10 10 11 11 11 12 13 14 16 17 19 20 21 22 23 24 25 25 26 26 27 27
49 49 48 47 46 46 43 40 38 36 35 34 33 33 32 29 29 29 27 25 22 21 19 18 17 18 18 17 17 17 16 16 15 15 12 11 9 7 6 7 9 9 9 10 10 10 12 14 15 17 18 19 21 22 23 24 24 25 26 27 27 27 27
49 49 48 46 46 44 41 38 37 36 35 33 33 32 31 29 29 29 26 24 22 20 19 17 17 18 17 16 16 16 15 15 14 13 11 9 8 9 9 8 8 9 10 10 11 12 13 15 17 18 19 20 22 23 23 24 25 26 27 28 28 28 28
49 48 46 45 44 41 38 38 37 36 34 33 32 32 30 29 30 28 25 23 21 20 18 17 17 17 16 15 15 15 15 15 14 13 12 10 9 10 9 8 9 10 11 11 12 13 14 16 18 19 20 22 23 23 24 25 25 26 27 28 28 29 30
48 46 45 44 42 39 37 37 37 35 33 32 32 31 30 30 30 28 24 22 21 20 18 17 17 17 16 16 16 16 16 16 16 15 13 12 12 12 11 10 10 11 12 13 13 14 16 18 19 21 22 23 24 25 25 26 27 28 28 29 29 30 31
46 45 44 42 40 38 37 36 36 34 32 32 32 31 30 30 29 27 24 22 21 20 18 18 17 17 16 16 16 16 17 17 17 16 15 15 15 15 14 13 13 14 14 15 15 16 18 19 21 22 23 24 25 26 27 28 29 30 30 30 31 31 32
44 43 42 40 39 38 36 35 35 33 32 32 33 32 31 30 29 26 23 22 21 20 19 19 18 17 17 16 16 17 18 18 18 18 18 18 18 17 17 16 17 17 17 17 18 19 20 21 23 24 24 25 26 27 28 29 30 31 31 32 32 33 33
42 41 39 38 38 37 35 34 33 32 32 33 34 33 31 30 28 25 22 21 21 20 20 20 19 18 17 17 17 18 19 20 20 19 19 20 20 20 20 20 20 20 20 20 21 21 23 24 25 26 26 27 28 29 30 31 31 32 32 33 33 34 34
40 38 37 37 37 36 34 34 33 32 33 34 34 33 31 30 28 24 22 21 21 20 21 21 21 20 19 18 18 19 20 21 21 21 21 22 21 22 22 22 22 22 23 23 23 24 25 26 27 28 28 29 30 31 32 33 33 33 33 33 34 35 35
37 36 37 37 36 35 34 33 33 33 34 34 34 33 31 29 27 24 21 21 21 21 21 22 21 21 20 20 20 20 21 22 23 23 23 23 24 24 24 24 23 24 24 25 25 26 27 28 29 29 30 31 32 33 35 36 36 34 34 35 35 36 36
36 36 36 36 35 35 34 34 34 34 34 35 35 33 30 28 26 23 21 21 21 21 22 22 22 22 21 22 22 22 22 23 24 25 25 25 25 25 25 25 25 25 25 26 27 28 28 29 30 31 31 33 34 37 39 40 37 35 36 37 38 37 37
36 36 35 35 35 35 35 34 34 34 35 35 34 33 30 28 26 22 21 21 21 21 22 22 22 22 22 22 22 23 24 24 25 26 26 26 27 27 27 27 27 27 27 28 29 30 30 31 31 32 33 34 35 37 38 37 35 35 37 39 40 39 36
35 35 34 34 35 35 35 35 35 35 35 35 34 32 30 27 25 22 22 22 21 22 22 22 22 22 22 22 22 23 24 25 26 27 27 28 29 29 30 30 29 29 29 30 30 31 32 32 32 33 33 34 34 34 33 31 33 36 39 41 41 39 35
34 34 34 35 35 36 36 36 36 35 35 35 34 31 29 26 24 22 22 22 22 22 22 21 21 21 21 21 21 23 24 25 26 27 28 29 30 31 32 31 31 31 31 31 31 31 32 33 33 33 34 33 33 33 32 31 33 36 38 39 38 36 36
33 33 35 35 36 37 37 36 36 35 34 34 32 30 28 26 23 22 22 22 22 22 21 20 20 20 20 21 22 23 25 26 27 28 30 31 32 32 32 32 32 32 32 32 32 31 32 32 33 34 34 33 33 33 33 33 35 35 36 36 35 36 38
33 34 36 37 37 38 37 36 35 34 33 33 31 29 27 25 23 23 23 23 22 21 20 20 20 20 21 22 24 25 26 28 29 31 31 31 31 31 31 31 31 32 32 32 32 32 32 32 32 33 33 34 34 35 35 35 35 36 36 37 38 38 40
34 35 37 37 38 37 36 35 33 32 32 32 31 28 26 24 24 24 23 23 22 21 20 19 20 21 22 24 25 27 28 30 31 31 31 30 30 29 29 29 30 31 31 31 32 33 33 33 34 34 35 35 35 36 36 36 35 35 37 39 40 41 41
34 36 36 37 37 36 35 33 32 31 31 31 30 28 26 25 25 24 23 22 21 20 19 20 21 22 24 25 27 29 30 30 30 30 29 29 29 29 29 29 30 31 32 32 33 34 35 36 36 37 37 37 37 38 37 37 36 36 37 39 40 41 42
34 36 36 37 37 36 34 32 31 31 31 31 30 28 26 26 26 25 23 22 21 20 20 21 22 24 25 27 29 30 30 30 29 29 30 30 30 31 31 32 33 33 34 34 35 36 36 37 38 39 39 39 40 40 39 39 39 38 38 39 41 42 43
Wind_Direction
266 273 279 286 290 288 284 282 281 282 285 287 285 282 281 281 281 281 279 279 281 285 290 294 296 298 303 304 305 306 305 302 299 296 296 297 296 295 293 289 284 284 286 284 275 270 269 269 267 265 266 267 266 269 273 277 280 284 289 294 299 304 305
267 273 279 285 287 284 281 278 278 279 282 284 283 281 281 280 280 280 279 280 282 285 291 295 296 298 303 306 306 307 307 304 300 298 298 299 298 295 291 288 285 281 282 281 273 267 268 268 267 266 265 262 262 267 271 275 279 285 290 294 299 302 304
268 273 279 284 283 281 279 276 276 277 279 282 282 281 280 279 279 279 279 279 282 286 292 295 296 298 302 305 306 308 308 305 301 300 301 301 300 296 289 284 281 278 278 275 270 266 267 269 269 265 259 258 261 266 271 275 281 287 291 294 297 300 303
268 272 279 283 280 279 277 274 275 275 276 280 281 281 280 279 278 278 278 279 282 288 292 296 297 299 302 305 308 310 308 305 301 301 302 301 299 295 289 282 277 276 274 270 269 267 266 268 266 261 257 258 261 265 270 276 282 286 289 292 295 298 301
268 272 279 281 278 277 275 273 275 274 274 277 279 279 279 278 277 277 278 279 282 289 293 296 298 300 302 304 307 309 308 305 302 301 301 299 296 292 287 280 276 275 273 271 269 263 261 264 262 260 259 259 261 266 271 277 281 284 286 289 293 297 300
269 273 279 280 276 275 273 272 275 274 273 275 277 278 278 277 276 276 277 279 284 290 294 296 298 300 302 304 306 308 309 306 303 301 301 298 294 290 285 278 274 274 273 271 266 257 256 259 259 260 262 263 265 268 272 275 278 281 283 288 293 297 299
269 274 279 279 276 274 271 271 274 273 272 273 275 276 276 275 276 276 277 281 287 291 293 296 298 301 303 304 305 307 308 307 304 302 300 297 294 290 287 280 273 272 271 269 263 253 250 253 256 263 266 264 267 269 271 274 276 279 283 289 295 298 298
269 275 279 279 277 274 271 271 274 273 271 272 273 273 274 275 275 276 278 283 287 291 293 296 298 301 303 304 304 305 307 308 307 306 302 299 297 291 286 285 282 277 271 266 258 242 241 246 254 265 266 262 265 269 272 274 276 279 285 291 297 298 299
270 275 278 278 277 274 272 272 274 272 271 271 271 272 274 275 275 276 280 283 287 291 294 295 298 301 302 303 303 305 307 309 310 309 306 305 303 295 285 283 283 279 272 268 258 242 239 244 255 264 264 261 266 270 273 274 276 281 287 293 297 298 299
270 274 276 277 277 275 273 274 274 272 271 271 270 271 273 274 275 277 280 283 286 291 293 294 298 301 301 301 303 305 306 307 308 307 305 305 306 302 292 282 279 278 272 267 261 248 243 248 259 264 262 263 268 271 273 274 277 283 288 292 296 299 301
269 272 274 276 276 275 275 274 273 272 272 272 271 271 272 273 276 278 280 283 287 291 292 293 297 299 300 301 303 304 305 305 303 301 301 302 306 306 296 283 280 279 269 264 262 255 248 252 262 266 263 266 271 274 275 276 279 283 287 291 296 300 302
268 271 273 275 275 274 275 274 273 273 273 272 272 270 270 272 275 277 280 283 287 290 291 292 295 298 300 302 303 304 305 304 302 299 299 303 306 307 298 283 278 277 270 264 261 254 250 257 267 268 268 272 277 279 278 278 280 283 287 292 297 300 304
267 269 272 273 272 273 274 272 272 273 272 271 271 268 268 271 274 276 279 283 287 289 290 291 293 297 300 303 305 305 305 303 301 300 301 304 306 308 303 288 279 279 273 263 255 252 258 271 276 276 276 279 281 281 280 280 282 284 288 293 297 301 305
266 267 269 271 271 271 272 270 270 272 271 271 270 266 266 269 272 276 279 283 286 288 289 290 293 296 300 304 307 307 306 303 301 301 302 304 307 309 307 294 286 288 278 264 259 267 278 282 280 278 278 280 282 282 282 282 283 286 290 295 299 303 306
264 265 268 269 269 269 269 268 269 271 270 270 268 264 265 268 271 275 278 282 285 287 289 290 293 298 303 308 309 307 306 303 302 302 303 305 307 309 307 298 292 295 287 278 279 282 280 277 276 276 278 282 284 284 283 282 284 288 292 296 300 303 305
262 264 265 266 267 267 267 267 269 270 270 269 265 262 263 267 270 274 277 281 284 286 288 290 293 300 306 309 309 307 305 303 303 304 305 305 306 305 302 295 289 288 285 282 282 282 282 280 279 280 283 285 283 282 282 283 287 290 293 297 300 302 302
260 261 263 264 265 265 265 266 268 270 269 267 263 260 262 266 269 272 276 280 282 284 286 289 294 302 307 309 309 309 308 307 307 307 307 307 306 300 290 281 285 284 280 278 279 284 288 285 283 284 283 281 281 281 283 285 288 291 294 297 299 300 300
258 260 261 262 262 263 264 265 267 268 267 264 260 259 261 264 268 271 275 278 280 282 285 288 295 303 307 308 309 311 312 312 311 309 309 311 307 293 266 266 282 282 277 275 273 276 283 285 284 283 281 280 281 282 284 286 288 291 295 297 298 299 299
257 259 259 259 260 262 263 265 266 266 264 261 258 257 259 263 266 269 274 277 278 280 283 287 295 302 305 307 309 312 315 315 314 311 312 314 306 279 241 265 283 283 281 278 273 273 279 282 282 281 281 281 282 283 285 287 290 294 296 297 297 297 298
256 256 256 257 259 260 262 264 265 262 260 258 256 256 258 261 265 268 272 275 276 278 281 286 294 299 302 305 308 312 317 317 316 315 317 317 305 280 269 280 284 285 287 286 284 282 282 282 283 283 283 284 285 286 288 290 293 295 296 296 296 295 296
252 253 254 256 257 259 261 263 262 259 257 255 253 254 257 260 263 267 271 272 273 276 279 285 293 296 299 302 306 312 316 317 318 317 317 318 306 293 290 288 287 289 289 288 289 289 288 287 286 286 286 286 287 288 290 292 295 296 296 296 296 295 296
249 250 252 254 256 259 261 260 257 256 254 252 251 253 256 259 262 266 269 269 271 273 276 283 290 293 295 299 304 309 313 315 316 316 315 315 307 298 295 293 291 291 289 289 291 291 290 290 288 288 288 288 288 290 291 293 295 296 298 298 297 296 298
247 249 251 253 256 258 258 255 253 252 250 249 250 252 255 258 262 266 267 267 269 271 273 279 285 289 292 296 301 306 309 310 310 312 314 312 307 304 303 301 296 293 292 293 295 294 294 292 291 291 290 290 291 292 292 293 294 297 299 300 299 298 298
245 247 249 252 255 256 253 251 249 249 247 247 249 251 254 257 261 264 264 265 268 270 271 275 281 284 288 293 298 302 304 306 307 308 309 308 306 307 307 305 301 299 298 300 300 299 297 295 294 294 294 295 295 294 293 293 294 297 300 301 300 299 299
244 246 249 251 253 252 249 246 246 245 245 246 248 250 253 257 261 262 262 264 268 269 270 273 276 279 283 289 294 297 299 302 305 306 307 307 307 307 306 305 302 302 302 302 302 300 297 296 297 297 298 298 297 295 294 294 294 296 298 299 299 299 299
243 246 248 249 249 247 244 243 243 242 243 244 247 250 253 257 259 260 260 263 267 269 269 271 272 275 279 284 289 292 295 299 302 305 307 308 308 308 307 305 303 302 302 301 299 298 297 297 298 298 299 298 297 297 295 294 294 295 296 297 298 298 298
243 245 246 246 245 243 240 239 240 240 242 244 247 250 253 256 258 258 259 263 267 268 268 269 270 273 275 279 283 287 291 296 300 303 306 307 308 309 308 306 304 302 300 298 297 297 297 297 297 297 297 296 297 296 295 293 292 292 294 296 297 296 296
243 244 243 243 241 238 237 237 238 239 242 244 247 250 252 255 256 256 258 263 266 267 267 267 269 271 274 276 279 284 288 293 297 301 304 306 308 309 309 308 306 303 300 299 298 297 297 297 296 295 295 296 296 296 294 291 289 290 293 296 297 296 295
242 241 240 239 236 235 235 236 237 239 241 244 247 250 252 254 255 255 259 264 265 265 265 265 267 270 273 276 279 282 287 291 296 299 302 305 307 309 309 309 307 305 303 301 300 299 298 297 296 295 295 295 296 298 296 290 285 287 292 295 296 294 293
239 238 237 235 233 233 234 235 236 239 241 244 247 249 251 252 253 256 260 263 264 264 263 264 266 270 273 277 280 284 288 292 296 299 301 304 306 308 308 308 307 305 303 301 299 299 298 298 297 296 296 297 298 301 301 292 285 289 294 295 294 292 291
237 235 233 231 230 232 233 234 236 239 241 243 246 248 250 251 253 256 260 263 264 264 264 265 269 272 275 278 282 286 289 293 295 298 300 302 304 306 307 306 304 302 300 299 298 298 298 298 297 296 297 298 300 302 303 297 292 294 295 294 293 292 291
234 232 230 229 230 232 233 234 237 239 241 244 246 249 250 251 252 256 261 264 265 265 266 269 272 275 278 281 284 286 289 291 294 296 298 300 302 303 303 303 301 299 298 299 299 298 297 297 297 297 297 298 299 300 301 299 297 296 295 294 292 291 292
233 231 230 229 230 232 234 236 238 240 242 245 247 249 250 251 253 257 261 264 265 266 267 271 274 278 281 284 285 287 289 290 293 295 297 299 300 300 300 300 299 297 297 297 298 297 297 297 297 297 297 297 299 299 300 301 299 295 294 294 291 289 290
232 231 230 230 231 233 234 236 239 240 243 246 248 249 250 252 255 258 261 264 266 267 269 272 276 280 283 285 286 287 290 292 294 296 297 298 299 299 299 298 297 296 296 297 297 297 297 298 297 297 297 297 298 299 300 302 300 295 292 293 291 288 288
231 231 232 232 233 234 235 237 239 241 244 246 248 249 250 252 255 259 262 265 267 269 272 276 279 282 283 285 286 289 292 293 295 296 297 298 299 299 299 297 296 296 297 297 298 299 298 298 297 297 298 298 299 300 301 302 301 295 291 291 291 289 290
231 232 233 234 235 235 236 237 238 241 244 246 249 249 249 251 255 258 262 266 269 271 275 277 280 281 283 285 288 290 292 292 294 296 297 298 298 298 297 296 296 296 297 297 298 298 298 298 298 298 299 300 301 302 302 301 300 297 292 290 290 290 289
233 234 235 235 235 235 236 237 238 240 243 246 249 250 249 252 255 258 261 266 269 271 274 276 278 280 283 286 288 289 290 292 293 296 296 296 297 297 297 297 297 298 298 298 298 297 297 298 298 299 301 301 301 301 301 299 298 296 292 289 288 288 288
Height
5847 5848 5849 5849 5849 5849 5849 5849 5848 5848 5847 5847 5846 5846 5846 5845 5844 5843 5842 5841 5840 5839 5838 5835 5833 5835 5837 5836 5834 5834 5833 5832 5831 5830 5829 5828 5827 5826 5824 5823 5823 5822 5822 5822 5821 5820 5819 5818 5818 5817 5817 5817 5817 5817 5817 5817 5817 5816 5815 5814 5814 5813 5812
5844 5846 5847 5847 5847 5847 5847 5847 5846 5846 5845 5845 5845 5844 5844 5843 5843 5842 5841 5839 5838 5837 5836 5834 5830 5829 5833 5835 5833 5832 5831 5830 5829 5828 5827 5826 5824 5823 5822 5821 5821 5820 5819 5819 5818 5818 5817 5816 5816 5815 5815 5815 5814 5814 5815 5815 5815 5814 5814 5813 5812 5811 5810
5842 5843 5844 5845 5844 5844 5844 5844 5844 5844 5844 5843 5843 5843 5842 5842 5841 5840 5839 5838 5837 5836 5835 5833 5829 5826 5827 5830 5832 5831 5829 5827 5826 5825 5824 5823 5822 5820 5819 5819 5818 5817 5817 5816 5816 5815 5815 5815 5814 5813 5812 5812 5812 5812 5813 5813 5813 5813 5812 5811 5810 5809 5808
5840 5841 5841 5842 5842 5842 5842 5842 5842 5842 5842 5841 5841 5841 5841 5840 5839 5838 5837 5836 5835 5835 5834 5832 5829 5824 5822 5823 5827 5829 5829 5826 5823 5823 5822 5821 5820 5818 5817 5816 5815 5815 5814 5814 5813 5813 5812 5812 5811 5810 5810 5810 5810 5810 5810 5810 5811 5811 5810 5809 5808 5807 5806
5837 5838 5839 5839 5839 5839 5839 5839 5839 5839 5839 5839 5840 5840 5839 5838 5837 5836 5835 5835 5834 5834 5832 5830 5828 5824 5821 5819 5820 5824 5826 5825 5822 5820 5820 5819 5817 5816 5815 5814 5813 5812 5812 5812 5811 5810 5809 5809 5809 5808 5808 5808 5808 5808 5808 5808 5808 5809 5808 5807 5806 5805 5804
5835 5836 5836 5836 5836 5836 5837 5837 5837 5837 5837 5837 5838 5838 5837 5836 5836 5835 5834 5833 5833 5833 5831 5829 5827 5824 5821 5817 5815 5817 5821 5823 5821 5818 5817 5816 5814 5812 5811 5811 5810 5809 5810 5809 5809 5808 5808 5806 5806 5806 5806 5806 5806 5806 5806 5806 5806 5806 5806 5805 5804 5803 5802
5833 5833 5833 5833 5833 5833 5834 5834 5834 5835 5835 5835 5836 5836 5835 5834 5834 5833 5832 5832 5832 5831 5830 5828 5826 5823 5820 5817 5814 5812 5813 5817 5818 5817 5815 5813 5811 5809 5807 5807 5807 5806 5806 5806 5806 5807 5806 5804 5803 5803 5803 5804 5804 5804 5804 5804 5804 5804 5804 5803 5802 5801 5800
5830 5830 5830 5830 5830 5830 5831 5831 5832 5832 5832 5833 5834 5833 5833 5832 5832 5831 5830 5830 5830 5829 5828 5826 5824 5822 5820 5817 5813 5810 5808 5809 5811 5812 5811 5809 5808 5806 5804 5803 5803 5803 5803 5803 5804 5804 5802 5801 5801 5801 5801 5802 5802 5803 5802 5802 5802 5802 5801 5800 5799 5798 5797
5827 5827 5827 5827 5827 5827 5828 5828 5829 5829 5830 5831 5831 5831 5830 5830 5829 5829 5829 5829 5828 5828 5826 5824 5822 5821 5819 5816 5813 5810 5807 5805 5804 5805 5805 5804 5803 5802 5801 5800 5799 5799 5799 5800 5801 5800 5798 5798 5799 5798 5799 5800 5800 5801 5801 5800 5800 5799 5799 5798 5797 5796 5795
5824 5824 5823 5823 5823 5824 5825 5825 5826 5827 5827 5828 5828 5828 5828 5827 5827 5827 5827 5827 5827 5826 5824 5822 5820 5819 5817 5815 5813 5810 5807 5805 5802 5801 5801 5801 5800 5798 5798 5797 5795 5795 5795 5795 5796 5796 5796 5796 5796 5796 5797 5797 5798 5799 5799 5798 5798 5797 5796 5796 5795 5794 5792
5821 5821 5820 5821 5821 5821 5822 5822 5823 5824 5825 5825 5825 5826 5826 5825 5824 5824 5825 5825 5824 5824 5822 5820 5818 5817 5815 5814 5811 5809 5806 5804 5802 5800 5799 5799 5798 5796 5795 5794 5793 5793 5792 5792 5793 5793 5794 5794 5794 5794 5794 5795 5796 5797 5797 5796 5795 5795 5794 5793 5792 5791 5790
5817 5817 5817 5818 5818 5818 5819 5820 5820 5822 5822 5822 5822 5823 5823 5822 5822 5822 5822 5823 5822 5821 5819 5818 5816 5815 5813 5811 5809 5807 5805 5802 5801 5799 5798 5797 5796 5794 5792 5791 5791 5791 5790 5790 5790 5790 5791 5792 5791 5792 5793 5794 5795 5795 5795 5794 5793 5792 5792 5791 5790 5788 5787
5814 5814 5814 5814 5814 5815 5816 5817 5817 5819 5820 5820 5820 5821 5820 5820 5819 5820 5820 5820 5820 5818 5817 5815 5814 5813 5811 5809 5807 5805 5803 5801 5799 5797 5796 5795 5793 5791 5789 5788 5788 5787 5787 5787 5787 5788 5789 5789 5790 5791 5792 5792 5793 5793 5792 5792 5791 5790 5789 5788 5787 5786 5785
5810 5811 5811 5811 5811 5812 5813 5814 5815 5816 5817 5817 5818 5818 5818 5817 5817 5817 5818 5817 5817 5816 5815 5813 5812 5810 5809 5807 5805 5803 5801 5799 5797 5796 5795 5793 5792 5790 5788 5786 5786 5785 5785 5785 5786 5787 5787 5788 5789 5790 5790 5791 5791 5790 5790 5789 5789 5788 5787 5786 5785 5784 5782
5806 5807 5808 5807 5807 5809 5810 5810 5812 5814 5815 5815 5815 5815 5815 5814 5815 5815 5815 5815 5814 5813 5812 5811 5810 5808 5806 5804 5803 5801 5799 5797 5795 5794 5793 5792 5790 5788 5786 5785 5785 5784 5784 5785 5785 5786 5786 5787 5788 5788 5788 5788 5788 5788 5788 5787 5786 5786 5785 5784 5783 5781 5780
5802 5803 5804 5803 5804 5806 5806 5807 5809 5811 5812 5812 5813 5813 5812 5811 5812 5812 5812 5812 5812 5811 5810 5809 5807 5805 5804 5802 5801 5799 5797 5795 5794 5792 5791 5790 5788 5787 5785 5785 5784 5784 5784 5785 5785 5786 5786 5786 5786 5786 5786 5786 5786 5786 5786 5785 5784 5783 5782 5781 5780 5779 5777
5798 5799 5799 5799 5801 5803 5803 5804 5806 5808 5809 5809 5810 5809 5809 5809 5809 5810 5810 5810 5809 5809 5808 5806 5805 5803 5802 5800 5799 5797 5795 5794 5792 5791 5789 5788 5786 5785 5784 5784 5784 5784 5784 5784 5784 5784 5785 5785 5784 5784 5784 5784 5784 5784 5783 5783 5782 5781 5780 5779 5778 5776 5775
5794 5795 5795 5796 5798 5799 5800 5801 5804 5805 5806 5806 5807 5806 5806 5806 5807 5807 5807 5807 5807 5806 5805 5804 5803 5802 5800 5799 5797 5795 5794 5792 5791 5790 5788 5786 5784 5783 5783 5783 5783 5783 5783 5783 5783 5783 5783 5783 5783 5783 5783 5783 5783 5782 5781 5780 5779 5779 5778 5776 5775 5774 5772
5790 5791 5791 5792 5794 5795 5796 5798 5801 5802 5803 5803 5804 5803 5803 5804 5804 5804 5804 5804 5804 5804 5802 5801 5800 5800 5799 5797 5796 5794 5793 5792 5790 5789 5787 5785 5783 5782 5782 5782 5783 5783 5783 5782 5782 5782 5782 5782 5782 5782 5781 5781 5780 5780 5779 5778 5777 5776 5775 5774 5772 5771 5770
5786 5787 5787 5789 5791 5792 5793 5795 5797 5799 5799 5800 5801 5800 5800 5801 5801 5801 5802 5802 5802 5801 5800 5799 5798 5798 5797 5796 5794 5793 5792 5791 5790 5788 5787 5785 5784 5783 5782 5782 5782 5782 5782 5782 5781 5781 5781 5781 5781 5781 5780 5779 5778 5778 5777 5776 5775 5774 5773 5771 5770 5768 5767
5781 5782 5783 5785 5787 5788 5790 5793 5794 5795 5796 5798 5797 5796 5797 5798 5798 5799 5799 5799 5799 5798 5797 5797 5796 5796 5795 5794 5793 5792 5791 5790 5789 5788 5786 5785 5784 5784 5783 5782 5782 5782 5782 5781 5781 5781 5780 5780 5780 5779 5778 5777 5776 5776 5775 5774 5773 5771 5770 5769 5767 5766 5764
5777 5778 5780 5782 5784 5786 5788 5790 5790 5792 5794 5794 5793 5793 5794 5795 5795 5796 5796 5797 5797 5796 5795 5794 5794 5794 5793 5792 5791 5790 5789 5788 5788 5787 5786 5785 5784 5784 5783 5782 5782 5782 5781 5781 5781 5780 5780 5779 5778 5778 5777 5776 5775 5774 5773 5772 5770 5769 5768 5766 5764 5763 5761
5772 5774 5777 5779 5781 5783 5785 5786 5787 5789 5790 5790 5790 5790 5791 5792 5792 5793 5794 5794 5794 5793 5792 5792 5792 5792 5791 5790 5789 5788 5788 5787 5786 5786 5785 5784 5784 5783 5782 5782 5781 5781 5781 5780 5780 5779 5778 5777 5777 5776 5775 5774 5773 5772 5771 5769 5768 5766 5765 5763 5761 5760 5758
5769 5771 5773 5776 5778 5780 5781 5782 5783 5785 5787 5787 5787 5787 5788 5789 5789 5790 5791 5791 5791 5790 5790 5790 5790 5789 5789 5788 5787 5787 5786 5786 5785 5785 5784 5783 5783 5782 5781 5781 5780 5780 5779 5779 5778 5777 5776 5776 5775 5774 5773 5772 5770 5769 5768 5767 5765 5764 5762 5760 5758 5757 5755
5766 5768 5770 5773 5774 5776 5778 5779 5780 5782 5783 5783 5783 5784 5785 5786 5787 5788 5789 5789 5788 5787 5787 5787 5788 5787 5787 5786 5786 5785 5785 5784 5784 5783 5783 5782 5781 5780 5780 5779 5779 5778 5777 5777 5776 5775 5775 5774 5772 5771 5770 5769 5768 5766 5765 5763 5762 5760 5759 5757 5755 5753 5751
5762 5765 5768 5770 5771 5772 5774 5775 5777 5778 5779 5779 5780 5781 5782 5783 5784 5785 5786 5786 5785 5785 5785 5785 5785 5785 5785 5784 5784 5783 5783 5782 5782 5782 5781 5780 5779 5779 5778 5777 5777 5776 5775 5775 5774 5773 5772 5771 5770 5768 5767 5766 5764 5763 5761 5760 5758 5757 5755 5753 5752 5750 5748
5759 5762 5764 5766 5767 5769 5771 5772 5774 5775 5775 5776 5777 5778 5779 5780 5781 5783 5783 5783 5782 5782 5782 5782 5782 5782 5782 5782 5781 5781 5781 5780 5780 5779 5779 5778 5777 5777 5776 5775 5774 5774 5773 5772 5771 5770 5769 5768 5766 5765 5763 5762 5761 5759 5758 5756 5754 5753 5751 5749 5747 5746 5744
5757 5759 5761 5762 5764 5766 5767 5768 5770 5771 5772 5773 5774 5774 5776 5778 5778 5780 5780 5780 5779 5779 5779 5779 5779 5779 5779 5779 5779 5779 5778 5778 5777 5777 5776 5776 5775 5774 5773 5773 5772 5771 5770 5769 5768 5767 5765 5764 5763 5761 5760 5758 5757 5755 5754 5752 5750 5749 5747 5745 5743 5741 5739
5754 5755 5757 5759 5760 5762 5763 5765 5766 5767 5769 5770 5770 5771 5774 5775 5776 5776 5777 5776 5776 5776 5776 5776 5776 5776 5776 5776 5776 5776 5776 5775 5775 5774 5774 5773 5772 5771 5771 5770 5769 5768 5767 5765 5764 5763 5762 5760 5759 5758 5756 5754 5753 5751 5749 5747 5746 5744 5742 5740 5738 5736 5735
5750 5752 5753 5755 5757 5759 5760 5762 5763 5764 5765 5766 5767 5768 5770 5772 5773 5774 5774 5773 5773 5773 5773 5773 5773 5773 5773 5773 5773 5773 5773 5772 5772 5772 5771 5770 5769 5768 5768 5767 5766 5764 5763 5762 5760 5759 5758 5757 5755 5754 5752 5750 5749 5747 5744 5742 5741 5740 5738 5736 5734 5732 5730
5746 5748 5750 5752 5754 5755 5757 5758 5760 5761 5762 5763 5764 5765 5768 5769 5770 5771 5771 5770 5770 5770 5770 5770 5770 5770 5770 5770 5770 5770 5770 5769 5769 5768 5768 5767 5766 5765 5764 5763 5762 5760 5759 5758 5757 5756 5754 5753 5751 5750 5748 5746 5745 5743 5740 5738 5737 5736 5733 5731 5729 5727 5726
5743 5745 5747 5748 5750 5752 5753 5755 5757 5758 5759 5760 5761 5763 5765 5767 5767 5768 5767 5767 5767 5767 5768 5768 5768 5768 5768 5767 5767 5767 5767 5766 5766 5765 5765 5764 5763 5762 5760 5759 5758 5756 5755 5754 5753 5752 5750 5749 5747 5745 5744 5742 5740 5739 5737 5735 5734 5731 5729 5727 5725 5723 5721
5740 5742 5744 5745 5747 5748 5750 5752 5753 5755 5756 5757 5759 5761 5763 5764 5765 5765 5764 5764 5764 5765 5765 5765 5765 5765 5765 5764 5764 5764 5764 5763 5763 5762 5762 5761 5759 5758 5757 5756 5754 5753 5751 5750 5749 5747 5746 5744 5743 5741 5739 5738 5736 5734 5733 5731 5729 5727 5725 5723 5721 5719 5717
5737 5739 5740 5742 5744 5745 5747 5749 5750 5752 5753 5755 5756 5758 5760 5761 5761 5761 5761 5761 5762 5762 5763 5763 5762 5762 5762 5761 5761 5760 5760 5760 5759 5758 5758 5757 5756 5754 5753 5752 5750 5749 5747 5746 5744 5743 5741 5740 5738 5737 5735 5734 5732 5730 5729 5727 5725 5723 5721 5719 5717 5714 5713
5734 5735 5737 5739 5741 5743 5745 5746 5748 5749 5750 5752 5753 5755 5757 5757 5758 5758 5758 5758 5759 5759 5759 5759 5759 5759 5758 5758 5757 5757 5757 5756 5755 5755 5754 5753 5752 5750 5749 5748 5746 5744 5743 5742 5740 5739 5737 5736 5734 5733 5731 5730 5728 5726 5724 5722 5721 5719 5717 5714 5712 5710 5707
5730 5732 5734 5736 5738 5740 5742 5743 5745 5746 5747 5748 5750 5752 5753 5754 5754 5755 5755 5755 5756 5756 5756 5756 5756 5755 5755 5754 5754 5754 5753 5753 5752 5751 5750 5749 5748 5746 5745 5744 5742 5741 5740 5738 5737 5735 5733 5732 5730 5729 5727 5725 5723 5722 5720 5718 5716 5714 5712 5710 5708 5705 5703
5728 5730 5731 5733 5735 5737 5739 5740 5741 5743 5744 5745 5747 5749 5750 5750 5751 5752 5752 5753 5753 5753 5753 5753 5752 5752 5751 5751 5750 5750 5749 5749 5748 5747 5746 5745 5744 5743 5741 5740 5738 5737 5736 5735 5733 5732 5730 5728 5726 5725 5723 5721 5718 5717 5715 5713 5711 5709 5706 5704 5702 5700 5698